TimeCDT,TemperatureF,Dew PointF,Humidity,Sea Level PressureIn,VisibilityMPH,Wind Direction,Wind SpeedMPH,Gust SpeedMPH,PrecipitationIn,Events,Conditions,WindDirDegrees,DateUTC
12:53 AM,70.0,66.0,87,29.86,10.0,SSE,15.0,-,N/A,,Clear,160,2013-10-30 05:53:00
1:53 AM,70.0,66.0,87,29.85,10.0,SSE,13.8,-,N/A,,Clear,160,2013-10-30 06:53:00
2:53 AM,70.0,66.0,87,29.85,10.0,South,13.8,-,N/A,,Partly Cloudy,170,2013-10-30 07:53:00
3:53 AM,71.1,66.0,84,29.83,10.0,SSE,17.3,-,N/A,,Overcast,160,2013-10-30 08:53:00
4:19 AM,71.6,66.2,83,29.88,10.0,SSE,15.0,-,N/A,,Overcast,160,2013-10-30 09:19:00
4:53 AM,71.1,66.0,84,29.83,10.0,SSE,16.1,-,N/A,,Overcast,160,2013-10-30 09:53:00
5:21 AM,69.8,66.2,88,29.87,10.0,SSE,15.0,-,0.02,Rain,Light Rain,150,2013-10-30 10:21:00
5:53 AM,70.0,66.0,87,29.83,10.0,SSE,16.1,-,0.04,Rain,Light Rain,150,2013-10-30 10:53:00
6:26 AM,69.8,66.2,88,29.88,10.0,SSE,17.3,-,0.02,,Overcast,150,2013-10-30 11:26:00
6:53 AM,70.0,66.0,87,29.83,10.0,SSE,17.3,-,0.02,,Overcast,150,2013-10-30 11:53:00
7:06 AM,69.8,66.2,88,29.87,10.0,SSE,16.1,-,N/A,,Overcast,150,2013-10-30 12:06:00
7:53 AM,69.1,66.0,90,29.82,10.0,SSE,13.8,-,N/A,,Overcast,150,2013-10-30 12:53:00
8:53 AM,70.0,66.0,87,29.83,10.0,South,11.5,-,0.00,,Partly Cloudy,170,2013-10-30 13:53:00
9:53 AM,71.1,66.0,84,29.83,10.0,South,16.1,-,N/A,,Overcast,170,2013-10-30 14:53:00
10:53 AM,73.0,66.0,79,29.82,10.0,South,17.3,-,N/A,,Overcast,170,2013-10-30 15:53:00
11:53 AM,75.9,66.0,71,29.81,10.0,South,21.9,-,N/A,,Overcast,180,2013-10-30 16:53:00
12:53 PM,77.0,66.0,69,29.79,10.0,South,19.6,27.6,N/A,,Mostly Cloudy,180,2013-10-30 17:53:00
1:53 PM,78.1,64.9,64,29.77,10.0,South,18.4,-,N/A,,Mostly Cloudy,190,2013-10-30 18:53:00
2:53 PM,79.0,64.9,62,29.73,10.0,South,19.6,27.6,N/A,,Partly Cloudy,180,2013-10-30 19:53:00
3:53 PM,78.1,64.9,64,29.72,10.0,SSW,20.7,-,N/A,,Clear,200,2013-10-30 20:53:00
4:53 PM,78.1,64.9,64,29.70,10.0,SSW,23.0,-,N/A,,Partly Cloudy,200,2013-10-30 21:53:00
5:53 PM,77.0,64.9,66,29.70,10.0,SSW,18.4,-,N/A,,Scattered Clouds,200,2013-10-30 22:53:00
6:53 PM,73.9,64.9,73,29.68,10.0,SSW,8.1,-,N/A,,Clear,200,2013-10-30 23:53:00
7:53 PM,72.0,64.9,78,29.68,10.0,SSE,16.1,-,N/A,,Partly Cloudy,160,2013-10-31 00:53:00
8:53 PM,72.0,66.0,81,29.68,10.0,SSE,20.7,-,0.00,,Mostly Cloudy,160,2013-10-31 01:53:00
9:53 PM,71.1,66.0,84,29.69,10.0,South,17.3,-,0.00,Rain,Light Rain,170,2013-10-31 02:53:00
10:53 PM,70.0,66.0,87,29.67,10.0,SSE,18.4,-,0.01,Rain,Light Rain,160,2013-10-31 03:53:00
11:51 PM,69.8,66.2,88,29.71,10.0,South,12.7,-,0.01,Thunderstorm,Overcast,180,2013-10-31 04:51:00
11:53 PM,69.1,66.0,90,29.67,10.0,South,13.8,-,0.01,Thunderstorm,Overcast,180,2013-10-31 04:53:00